Tracking 19176 objects as of 25-May-2018
HD Live streaming from Space Station
objects crossing your sky now

SL-8 DEB

Track SL-8 DEB now!
10-day predictions


NORAD ID: 18545
Int'l Code: 1986-100C
Perigee: 879.7 km
Apogee: 903.0 km
Inclination: 82.9 °
Period: 102.7 minutes
Semi major axis: 7262 km
RCS: 0.0131 m2 (small)
Launch date: December 17, 1986
Source: Commonwealth of Independent States (former USSR) (CIS)
Launch site: PLESETSK MISSILE AND SPACE COMPLEX (PKMTR)

Note: This is SATELLITE DEBRIS
aabbcc
Your satellite tracking list
Your tracking list is empty




NASA's NSSDC Master Catalog

Two Line Element Set (TLE):
1 18545U 86100C   18144.85629719 +.00000418 +00000-0 +25973-3 0  9995
2 18545 082.9263 275.0000 0016076 198.8552 287.9714 14.02770944591851
Source of the keplerian elements: AFSPC